User: anonymous   Login
Location: Wawayanda State Park
(41.1833°N, 74.4333°W)
Time: 12:59:49
(UTC-05:00)
Language:

RESURS DK-1 - Orbit

View from above orbital plane
View from above orbital plane
View from above satellite
View from above satellite

Ground track
Ground track

The orbit data is extracted from the following two-line orbital elements,

1 29228U 06021A   18056.53690481  .00000081  00000-0  13517-4 0  9998
2 29228  69.9360 173.4365 0007289 295.7752  64.2656 15.02286953646141
Epoch (UTC): 25 February 2018 12:53:08
Eccentricity: 0.0007289
inclination: 69.9360°
perigee height: 555 km
apogee height: 565 km
right ascension of ascending node: 173.4365°
argument of perigee: 295.7752°
revolutions per day: 15.02286953
mean anomaly at epoch: 64.2656°
orbit number at epoch: 64614

The dashed part of the orbit path shows where the satellite is in the earth's shadow,  

DLR